Regional Weather Roundup
Issued by NWS

Home | Current Version | Previous Version | Graphics & Text | Print | Product List | Glossary On
Versions: 1 2 3 4 5 6 7 8 9 10 11 12 13 14 15 16 17 18 19 20 21 22 23 24 25 26 27 28 29 30 31 32 33 34 35 36 37 38 39 40 41 42 43 44 45 46 47 48 49 50
000
ASUS43 KFSD 010202
RWRSD

WEATHER ROUNDUP FOR SOUTH DAKOTA
NATIONAL WEATHER SERVICE SIOUX FALLS SD
800 PM CST SAT FEB 28 2015

NOTE: "FAIR" INDICATES FEW OR NO CLOUDS BELOW 12,000 FEET WITH NO
SIGNIFICANT WEATHER AND/OR OBSTRUCTIONS TO VISIBILITY.


SDZ001>005-009-010-012>017-010300-
NORTHWEST AND NORTH CENTRAL SOUTH DAKOTA

CITY           SKY/WX    TMP DP  RH WIND       PRES   REMARKS
BUFFALO          N/A     13   5  70 NW6       30.06S WCI   4
FAITH            N/A     14   4  64 NW8       30.16R WCI   3
MOBRIDGE       MOCLDY    14   5  67 NW7       30.17R WCI   4
$$

SDZ012>016-024>037-041>051-057-063-072>074-010300-
SOUTHWEST AND SOUTH CENTRAL SOUTH DAKOTA

CITY           SKY/WX    TMP DP  RH WIND       PRES   REMARKS
RAPID CTY ARPT CLEAR     16   8  71 N13       30.14R WCI   2
PIERRE         CLEAR     15   7  70 NW7       30.20R WCI   5
CUSTER         CLOUDY    12   7  80 CALM      29.98R
ELLSWORTH AFB  CLOUDY    18   9  68 N13       30.13R WCI   4
PHILIP         CLEAR     13   0  56 N6        30.20R WCI   4
PINE RIDGE     PTCLDY    18   7  62 E5        30.12R WCI  11
WINNER         FAIR      21  -1  38 NW7       30.18R WCI  12
$$

SDZ004>011-016>023-039-040-010300-
NORTHEAST SOUTH DAKOTA

CITY           SKY/WX    TMP DP  RH WIND       PRES   REMARKS
ABERDEEN       CLOUDY    21  12  68 NW16      30.20R WCI   7
WATERTOWN      CLOUDY    21  13  71 S7        30.13S WCI  12
SISSETON         N/A     25  16  68 SW3       30.17R
$$

SDZ017-020-022-023-036>040-048>070-010300-
SOUTHEAST SOUTH DAKOTA

CITY           SKY/WX    TMP DP  RH WIND       PRES   REMARKS
SIOUX FALLS    CLEAR     21  12  68 S13       30.21R WCI   9
HURON          CLEAR     19  13  77 NW10      30.19R WCI   7
MITCHELL       PTCLDY    27  16  63 N12       30.20R WCI  17
YANKTON        CLEAR     25  10  54 S16       30.24S WCI  12
$$

ABBREVIATIONS USED IN REMARKS
   TC - TEMPERATURE IN CELSIUS
  WCI - WIND CHILL INDEX
   HX - HEAT INDEX
  VSB - VISIBILITY



USA.gov is the U.S. government's official web portal to all federal, state and local government web resources and services.